Regional Weather Roundup
Issued by NWS Goodland, KS

Home | Current Version | Previous Version | Graphics & Text | Print | Product List | Glossary On
Versions: 1 2 3 4 5 6 7 8 9 10 11 12 13 14 15 16 17 18 19 20 21 22 23 24 25 26 27 28 29 30 31 32 33 34 35 36 37 38 39 40 41 42 43 44 45 46 47 48 49 50
000
ASUS43 KGLD 270659
RWRGLD

GOODLAND FORECAST AREA HOURLY WEATHER ROUNDUP
NATIONAL WEATHER SERVICE GOODLAND KS
1200 AM MST THU NOV 27 2014

...OFFICIAL OBSERVATIONS...

CITY           SKY/WX    TMP DP  RH WIND       PRES   REMARKS
GOODLAND KS    CLEAR     26  22  84 S10       30.34F WCI  16
HILL CITY KS   CLOUDY    30  18  60 SE3       30.41S
IMPERIAL NEB   CLEAR     26  23  88 S6        30.33F
MCCOOK NEB     CLOUDY    30  19  63 E3        30.37F
AKRON CO       PTCLDY    21  19  92 SW10      30.25F WCI  10
BURLINGTON CO  PTCLDY    22  18  85 S13       30.32F WCI  10
LIMON CO       PTCLDY    25  19  78 SE7       30.30F
$$

...UNOFFICIAL OBSERVATIONS...

CITY           SKY/WX    TMP DP  RH WIND       PRES   REMARKS
COLBY KS       CLEAR     27  27 100 CALM      30.37R
GOVE KS          N/A     29  32 100 MISG        N/A
NORTON KS      CLOUDY    25  16  68 S5        30.39F
SHARON SPRINGS   N/A     21  17  84 SW8         N/A
$$


USA.gov is the U.S. government's official web portal to all federal, state and local government web resources and services.